FW6402 Weather Reports


Display with metric or nautical units.
time (UTC)temp
F
wind
direction
speed
MPH
gust
MPH
rain 1hr
in
rain 24hr
in
rain mn
in
humidity
%
barometer
mb
20260505211351 64 353 0.0 1.0 0.00 0.00 0.00 72 1018.3
20260505210848 64 270 0.0 3.0 0.00 0.00 0.00 73 1018.2
20260505210407 63 266 0.0 3.0 0.00 0.00 0.00 73 1018.3
20260505205852 63 235 1.0 4.0 0.00 0.00 0.00 72 1018.3
20260505205348 63 260 1.0 3.0 0.00 0.00 0.00 72 1018.3
20260505204846 64 256 1.0 3.0 0.00 0.00 0.00 72 1018.3
20260505204343 63 237 0.0 3.0 0.00 0.00 0.00 73 1018.3
20260505203840 63 292 1.0 3.0 0.00 0.00 0.00 73 1018.3
20260505203335 64 244 1.0 4.0 0.00 0.00 0.00 72 1018.4
20260505202855 64 269 1.0 4.0 0.00 0.00 0.00 70 1018.4
20260505202351 65 288 1.0 2.0 0.00 0.00 0.00 70 1018.3
20260505201829 64 120 0.0 4.0 0.00 0.00 0.00 71 1018.5
20260505201347 64 165 1.0 4.0 0.00 0.00 0.00 71 1018.5
20260505200852 64 248 1.0 4.0 0.00 0.00 0.00 72 1018.5
20260505200409 64 78 2.0 4.0 0.00 0.00 0.00 71 1018.5
20260505195843 63 284 0.0 3.0 0.00 0.00 0.00 74 1018.5
20260505195341 63 250 1.0 3.0 0.00 0.00 0.00 72 1018.5
20260505194839 63 238 2.0 3.0 0.00 0.00 0.00 73 1018.5
20260505194334 63 190 0.0 3.0 0.00 0.00 0.00 75 1018.5
20260505193853 62 245 2.0 3.0 0.00 0.00 0.00 73 1018.6
20260505193349 63 134 1.0 3.0 0.00 0.00 0.00 74 1018.6
20260505192846 62 86 0.0 3.0 0.00 0.00 0.00 75 1018.6
20260505192345 61 161 1.0 2.0 0.00 0.00 0.00 77 1018.6
20260505191843 61 68 1.0 3.0 0.00 0.00 0.00 76 1018.6
20260505191341 60 284 2.0 4.0 0.00 0.00 0.00 77 1018.6
20260505190841 61 237 2.0 4.0 0.00 0.00 0.00 75 1018.6
20260505190359 61 96 0.0 1.0 0.00 0.00 0.00 77 1018.6
20260505185853 60 122 0.0 3.0 0.00 0.00 0.00 78 1018.6
20260505185331 60 56 2.0 3.0 0.00 0.00 0.00 79 1018.6
20260505184848 60 133 1.0 2.0 0.00 0.00 0.00 79 1018.6
20260505184343 59 51 0.0 2.0 0.00 0.00 0.00 80 1018.7
20260505183849 59 263 0.0 3.0 0.00 0.00 0.00 81 1018.7
20260505183348 58 52 1.0 3.0 0.00 0.00 0.00 81 1018.7
20260505182845 58 52 1.0 2.0 0.00 0.00 0.00 81 1018.8
20260505182342 58 75 0.0 2.0 0.00 0.00 0.00 82 1018.7
20260505181839 58 53 0.0 2.0 0.00 0.00 0.00 82 1018.6
20260505181357 58 74 0.0 2.0 0.00 0.00 0.00 83 1018.6
20260505180850 58 101 1.0 2.0 0.00 0.00 0.00 83 1018.6
20260505180347 57 40 0.0 2.0 0.00 0.00 0.00 83 1018.6
20260505175841 57 259 0.0 3.0 0.00 0.00 0.00 83 1018.6
20260505174914 58 258 0.0 2.0 0.00 0.00 0.00 83 1018.6
20260505174409 57 164 0.0 2.0 0.00 0.00 0.00 83 1018.6
20260505173846 57 250 0.0 2.0 0.00 0.00 0.00 83 1018.6
20260505173344 57 243 0.0 2.0 0.00 0.00 0.00 83 1018.5
20260505172841 57 226 0.0 2.0 0.00 0.00 0.00 83 1018.6
20260505172341 57 271 0.0 2.0 0.00 0.00 0.00 83 1018.5
20260505171838 57 218 0.0 2.0 0.00 0.00 0.00 84 1018.4
20260505171331 57 250 1.0 2.0 0.00 0.00 0.00 83 1018.4
20260505170846 57 226 0.0 2.0 0.00 0.00 0.00 84 1018.5
20260505170344 57 214 1.0 3.0 0.00 0.00 0.00 83 1018.4
20260505165841 57 275 1.0 3.0 0.00 0.00 0.00 83 1018.3
20260505165348 57 197 0.0 2.0 0.00 0.00 0.00 83 1018.4
20260505164845 57 221 0.0 2.0 0.00 0.00 0.00 84 1018.4
20260505164342 57 283 1.0 3.0 0.00 0.00 0.00 84 1018.3
20260505163900 57 231 0.0 3.0 0.00 0.00 0.00 84 1018.3
20260505163406 57 182 0.0 2.0 0.00 0.00 0.00 84 1018.3
20260505162842 57 94 0.0 2.0 0.00 0.00 0.00 84 1018.3
20260505162356 57 159 1.0 3.0 0.00 0.00 0.00 84 1018.3
20260505161901 57 101 1.0 3.0 0.00 0.00 0.00 84 1018.2
20260505161329 56 155 0.0 1.0 0.00 0.00 0.00 86 1018.3
20260505160854 56 86 0.0 1.0 0.00 0.00 0.00 85 1018.2
20260505160331 56 229 0.0 1.0 0.00 0.00 0.00 86 1018.2
20260505153345 55 143 0.0 2.0 0.00 0.00 0.00 88 1018.3
20260505152842 55 271 1.0 2.0 0.00 0.00 0.00 87 1018.3
20260505152339 55 118 0.0 2.0 0.00 0.00 0.00 88 1018.2
20260505151831 55 156 0.0 2.0 0.00 0.00 0.00 88 1018.2
20260505151357 55 118 0.0 1.0 0.00 0.00 0.00 88 1018.2
20260505150832 55 268 0.0 2.0 0.00 0.00 0.00 88 1018.2
20260505150349 55 229 1.0 2.0 0.00 0.00 0.00 87 1018.2
20260505140346 54 245 0.0 0.0 0.00 0.00 0.00 86 1017.4
20260505124829 54 230 0.0 1.0 0.00 0.00 0.00 87 1017.2
20260505124346 54 230 0.0 1.0 0.00 0.00 0.00 87 1017.1
20260505123843 54 250 0.0 1.0 0.00 0.00 0.00 86 1017.1
20260505123337 54 236 0.0 0.0 0.00 0.00 0.00 86 1017.2
20260505122842 54 239 0.0 1.0 0.00 0.00 0.00 87 1017.2
20260505122339 54 239 0.0 1.0 0.00 0.00 0.00 86 1017.1
20260505121836 54 240 0.0 1.0 0.00 0.00 0.00 87 1017.1
20260505121356 54 239 0.0 1.0 0.00 0.00 0.00 86 1017.1
20260505120852 54 243 0.0 1.0 0.00 0.00 0.00 87 1017.1
20260505120331 54 243 0.0 0.0 0.00 0.00 0.00 86 1017.1
20260505115848 54 243 0.0 0.0 0.00 0.00 0.00 86 1017.1
20260505115414 54 243 0.0 0.0 0.00 0.00 0.00 86 1017.1
20260505114850 54 243 0.0 3.0 0.00 0.00 0.00 86 1017.0
20260505114404 54 243 1.0 3.0 0.00 0.00 0.00 86 1017.0
20260505113840 54 250 0.0 0.0 0.00 0.00 0.00 86 1017.0
20260505113401 54 250 0.0 0.0 0.00 0.00 0.00 86 1017.0
20260505112837 54 250 0.0 0.0 0.00 0.00 0.00 86 1016.9
20260505112329 54 252 0.0 0.0 0.00 0.00 0.00 86 1016.9
20260505111855 54 252 0.0 0.0 0.00 0.00 0.00 86 1017.0
20260505111409 54 252 0.0 0.0 0.00 0.00 0.00 86 1016.9
20260505110844 54 250 0.0 0.0 0.00 0.00 0.00 86 1016.9
20260505110341 54 252 0.0 0.0 0.00 0.00 0.00 86 1016.8
20260505101838 54 230 0.0 0.0 0.00 0.00 0.00 86 1016.6
20260505101334 54 230 0.0 0.0 0.00 0.00 0.00 86 1016.5
20260505100845 54 230 0.0 1.0 0.00 0.00 0.00 86 1016.6
20260505100343 54 230 0.0 1.0 0.00 0.00 0.00 86 1016.7
20260505095909 54 256 0.0 1.0 0.00 0.00 0.00 86 1016.6
20260505095344 54 257 0.0 1.0 0.00 0.00 0.00 86 1016.7
20260505094841 54 252 0.0 1.0 0.00 0.00 0.00 86 1016.6
20260505094348 54 266 0.0 4.0 0.00 0.00 0.00 86 1016.6
20260505093844 54 285 1.0 4.0 0.00 0.00 0.00 86 1016.5
20260505093340 54 256 0.0 1.0 0.00 0.00 0.00 86 1016.5
20260505092829 54 241 0.0 1.0 0.00 0.00 0.00 87 1016.5
20260505092352 54 227 0.0 0.0 0.00 0.00 0.00 87 1016.6
20260505091832 54 228 0.0 0.0 0.00 0.00 0.00 87 1016.4
20260505091329 54 228 0.0 0.0 0.00 0.00 0.00 86 1016.4
20260505090844 54 228 0.0 0.0 0.00 0.00 0.00 86 1016.4
20260505090350 54 228 0.0 0.0 0.00 0.00 0.00 86 1016.3
20260505085906 55 255 0.0 1.0 0.00 0.00 0.00 85 1016.2
20260505085341 55 247 0.0 1.0 0.00 0.00 0.00 85 1016.2
20260505084839 55 223 0.0 2.0 0.00 0.00 0.00 85 1016.2
20260505084405 55 224 0.0 2.0 0.00 0.00 0.00 85 1016.3
20260505083836 55 189 0.0 2.0 0.00 0.00 0.00 84 1016.2
20260505083335 55 248 1.0 2.0 0.00 0.00 0.00 85 1016.2
20260505082844 55 258 0.0 2.0 0.00 0.00 0.00 85 1016.2
20260505082350 55 240 0.0 2.0 0.00 0.00 0.00 85 1016.1
20260505081907 55 250 0.0 1.0 0.00 0.00 0.00 84 1016.1
20260505081342 55 226 0.0 1.0 0.00 0.00 0.00 84 1016.2
20260505080910 55 240 0.0 2.0 0.00 0.00 0.00 84 1016.1
20260505080346 55 243 0.0 4.0 0.00 0.00 0.00 84 1016.1
20260505075843 55 279 0.0 4.0 0.00 0.00 0.00 84 1016.1
20260505075341 55 232 0.0 2.0 0.00 0.00 0.00 83 1016.0
20260505074836 56 232 0.0 3.0 0.00 0.00 0.00 83 1016.0
20260505074335 56 218 1.0 3.0 0.00 0.00 0.00 83 1015.9
20260505073832 56 232 0.0 2.0 0.00 0.00 0.00 83 1015.8
20260505073413 56 222 1.0 2.0 0.00 0.00 0.00 83 1015.7
20260505072831 56 235 0.0 2.0 0.00 0.00 0.00 82 1015.6
20260505072347 56 232 0.0 2.0 0.00 0.00 0.00 82 1015.6
20260505071844 56 231 1.0 2.0 0.00 0.00 0.00 82 1015.5
20260505071342 56 245 0.0 3.0 0.00 0.00 0.00 82 1015.4
20260505070846 56 253 0.0 3.0 0.00 0.00 0.00 82 1015.3
20260505070340 57 273 0.0 1.0 0.00 0.00 0.00 82 1015.3
20260505065837 57 283 0.0 1.0 0.00 0.00 0.00 81 1015.3
20260505065353 57 292 0.0 1.0 0.00 0.00 0.00 81 1015.1
20260505064910 57 321 0.0 1.0 0.00 0.00 0.00 81 1015.2
20260505064347 57 335 0.0 3.0 0.00 0.00 0.00 81 1015.1
20260505063844 58 271 0.0 4.0 0.00 0.00 0.00 81 1015.0
20260505063409 58 250 1.0 4.0 0.00 0.00 0.00 80 1015.0
20260505062404 59 259 1.0 3.0 0.00 0.00 0.00 79 1014.9
20260505061837 59 235 1.0 3.0 0.00 0.00 0.00 79 1014.8
20260505061335 59 243 0.0 2.0 0.00 0.00 0.00 79 1014.8
20260505060842 59 221 0.0 2.0 0.00 0.00 0.00 79 1014.7
20260505060340 60 221 1.0 2.0 0.00 0.00 0.00 79 1014.7
20260505055838 60 234 0.0 1.0 0.00 0.00 0.00 78 1014.7
20260505055348 60 234 0.0 2.0 0.00 0.00 0.00 77 1014.6
20260505054854 61 221 0.0 3.0 0.00 0.00 0.00 77 1014.6
20260505054350 61 253 1.0 3.0 0.00 0.00 0.00 76 1014.5
20260505053847 61 232 1.0 3.0 0.00 0.00 0.00 75 1014.5
20260505053343 61 213 1.0 3.0 0.00 0.00 0.00 75 1014.4
20260505052841 62 233 2.0 3.0 0.00 0.00 0.00 75 1014.5
20260505052336 62 232 1.0 4.0 0.00 0.00 0.00 74 1014.4
20260505051834 62 234 1.0 4.0 0.00 0.00 0.00 73 1014.3
20260505051332 63 249 1.0 2.0 0.00 0.00 0.00 73 1014.4
20260505050845 63 161 1.0 3.0 0.00 0.00 0.00 73 1014.3
20260505050342 63 267 1.0 3.0 0.00 0.00 0.00 73 1014.3
20260505041345 66 234 1.0 4.0 0.00 0.00 0.00 72 1013.2
20260505040843 66 241 0.0 2.0 0.00 0.00 0.00 73 1013.1
20260505040359 66 267 0.0 3.0 0.00 0.00 0.00 74 1013.1
20260505035837 66 258 1.0 4.0 0.00 0.00 0.00 74 1013.0
20260505035334 66 271 0.0 4.0 0.00 0.00 0.00 74 1012.9
20260505034847 67 44 0.0 2.0 0.00 0.00 0.00 74 1012.9
20260505034414 67 250 0.0 4.0 0.00 0.00 0.00 74 1012.7
20260505033849 67 262 1.0 4.0 0.00 0.00 0.00 74 1012.6
20260505033345 68 245 0.0 0.0 0.00 0.00 0.00 74 1012.6
20260505032843 68 249 0.0 0.0 0.00 0.00 0.00 73 1012.5
20260505032341 69 238 0.0 0.0 0.00 0.00 0.00 72 1012.4
20260505031900 69 238 0.0 0.0 0.00 0.00 0.00 71 1012.3
20260505031336 69 232 0.0 0.0 0.00 0.00 0.00 72 1012.3
20260505030832 70 233 0.0 0.0 0.00 0.00 0.00 70 1012.3
20260505030415 69 233 0.0 0.0 0.00 0.00 0.00 70 1012.2
20260505025829 70 233 0.0 1.0 0.00 0.00 0.00 71 1012.2
20260505025346 70 232 0.0 1.0 0.00 0.00 0.00 69 1012.1
20260505024842 70 220 0.0 2.0 0.00 0.00 0.00 69 1012.1
20260505024339 70 250 0.0 2.0 0.00 0.00 0.00 68 1012.1
20260505023846 71 237 0.0 0.0 0.00 0.00 0.00 68 1012.1
20260505023343 71 239 0.0 0.0 0.00 0.00 0.00 68 1012.1
20260505022840 71 239 0.0 0.0 0.00 0.00 0.00 68 1012.1
20260505022338 71 226 0.0 0.0 0.00 0.00 0.00 67 1012.1
20260505021830 72 241 0.0 0.0 0.00 0.00 0.00 66 1012.1
20260505021352 72 257 0.0 2.0 0.00 0.00 0.00 66 1012.0
20260505020849 72 240 0.0 2.0 0.00 0.00 0.00 65 1012.1
20260505020346 73 127 0.0 2.0 0.00 0.00 0.00 65 1012.1
20260505015843 73 253 1.0 2.0 0.00 0.00 0.00 64 1012.1
20260505015336 74 246 0.0 2.0 0.00 0.00 0.00 63 1012.1
20260505014833 74 243 0.0 2.0 0.00 0.00 0.00 62 1012.1
20260505014349 74 236 0.0 2.0 0.00 0.00 0.00 62 1012.1
20260505013854 75 263 0.0 2.0 0.00 0.00 0.00 61 1012.2
20260505013330 75 266 0.0 2.0 0.00 0.00 0.00 60 1012.2
20260505012841 76 252 0.0 4.0 0.00 0.00 0.00 60 1012.3
20260505012337 75 196 0.0 4.0 0.00 0.00 0.00 61 1012.3
20260505011903 75 255 0.0 4.0 0.00 0.00 0.00 60 1012.3
20260505011338 75 263 1.0 4.0 0.00 0.00 0.00 62 1012.3
20260505010830 74 279 2.0 4.0 0.00 0.00 0.00 61 1012.3
20260505010356 75 241 1.0 4.0 0.00 0.00 0.00 61 1012.4
20260505005832 75 280 2.0 4.0 0.00 0.00 0.00 61 1012.4
20260505005330 74 236 1.0 4.0 0.00 0.00 0.00 62 1012.4
20260505004846 75 256 2.0 5.0 0.00 0.00 0.00 61 1012.4
20260505004344 74 216 1.0 5.0 0.00 0.00 0.00 61 1012.5
20260505003839 75 304 2.0 3.0 0.00 0.00 0.00 60 1012.5
20260505003337 75 207 0.0 3.0 0.00 0.00 0.00 61 1012.5
20260505002833 74 253 2.0 5.0 0.00 0.00 0.00 62 1012.5
20260505002345 74 276 2.0 5.0 0.00 0.00 0.00 62 1012.6
20260505001844 74 214 2.0 5.0 0.00 0.00 0.00 61 1012.6
20260505001341 74 237 2.0 5.0 0.00 0.00 0.00 61 1012.6
20260505000838 74 203 2.0 5.0 0.00 0.00 0.00 61 1012.6
20260505000330 74 212 2.0 6.0 0.00 0.00 0.00 61 1012.6
20260504235857 74 243 3.0 6.0 0.00 0.00 0.00 60 1012.6
20260504235351 74 240 1.0 6.0 0.00 0.00 0.00 60 1012.6
20260504234849 75 256 3.0 4.0 0.00 0.00 0.00 59 1012.6
20260504234406 75 231 2.0 5.0 0.00 0.00 0.00 60 1012.6
20260504233840 74 221 2.0 6.0 0.00 0.00 0.00 61 1012.7
20260504233406 74 245 1.0 6.0 0.00 0.00 0.00 60 1012.7
20260504232900 75 250 1.0 5.0 0.00 0.00 0.00 59 1012.7
20260504232339 75 119 2.0 5.0 0.00 0.00 0.00 59 1012.9
20260504231835 74 164 1.0 5.0 0.00 0.00 0.00 59 1012.9
20260504231329 74 224 1.0 5.0 0.00 0.00 0.00 61 1013.0
20260504230852 73 245 2.0 5.0 0.00 0.00 0.00 61 1013.0
20260504230409 73 207 2.0 7.0 0.00 0.00 0.00 60 1013.2
20260504225913 73 140 2.0 7.0 0.00 0.00 0.00 61 1013.2
20260504225407 74 297 2.0 5.0 0.00 0.00 0.00 61 1013.3
20260504224844 73 226 1.0 6.0 0.00 0.00 0.00 62 1013.3
20260504224340 72 60 3.0 7.0 0.00 0.00 0.00 61 1013.5
20260504223858 73 265 2.0 7.0 0.00 0.00 0.00 60 1013.4
20260504223344 73 274 3.0 6.0 0.00 0.00 0.00 60 1013.5
20260504222852 74 51 1.0 5.0 0.00 0.00 0.00 59 1013.5
20260504222349 74 212 1.0 5.0 0.00 0.00 0.00 59 1013.5
20260504221843 73 158 0.0 4.0 0.00 0.00 0.00 60 1013.7
20260504221341 72 265 2.0 5.0 0.00 0.00 0.00 61 1013.7
20260504220901 72 141 1.0 7.0 0.00 0.00 0.00 62 1013.8
20260504220339 71 276 2.0 7.0 0.00 0.00 0.00 61 1014.0
20260504215836 72 245 2.0 5.0 0.00 0.00 0.00 61 1014.0
20260504215333 72 231 1.0 4.0 0.00 0.00 0.00 62 1014.0
20260504214830 72 290 1.0 4.0 0.00 0.00 0.00 61 1014.1
20260504214412 71 229 3.0 5.0 0.00 0.00 0.00 62 1014.2
20260504213909 71 87 2.0 5.0 0.00 0.00 0.00 62 1014.2
20260504213345 71 285 1.0 4.0 0.00 0.00 0.00 63 1014.2
20260504212850 70 205 1.0 6.0 0.00 0.00 0.00 65 1014.4
20260504212346 69 196 3.0 6.0 0.00 0.00 0.00 66 1014.4
20260504211845 68 262 1.0 4.0 0.00 0.00 0.00 67 1014.5